Location: Hurecourt
(47.9030°N, 6.0653°E)
Time: 10:21:10
(UTC+00:00)

COSMOS 2406 - Pass Details

Date: 14 July 2020
Orbit: 844 x 863 km, 71.0° (Epoch: 05 August)

Event Time Altitude Azimuth Distance (km) Brightness Sun altitude
Exits shadow 00:49:37 27° 163° (SSE) 1,595 4.2 -18.8°
Maximum altitude 00:52:17 45° 108° (ESE) 1,168 3.9 -18.7°
Drops below altitude 10° 00:57:43 10° 38° (NE) 2,510 6.7 -18.4°
Sets 01:00:17 0° 32° (NNE) 3,449 7.9 -18.3°
